| time (UTC) | temp F | wind direction | speed MPH | gust MPH | rain 1hr in | rain 24hr in | rain mn in | humidity % | barometer mb |
| 20260505075139 | 64 | 14 | 4.0 | 5.0 | 0.00 | 0.00 | 0.00 | 53 | 1031.2 |
| 20260505074636 | 64 | 5 | 5.0 | 5.0 | 0.00 | 0.00 | 0.00 | 54 | 1031.2 |
| 20260505074133 | 64 | 17 | 5.0 | 6.0 | 0.00 | 0.00 | 0.00 | 53 | 1031.0 |
| 20260505073631 | 64 | 18 | 3.0 | 6.0 | 0.00 | 0.00 | 0.00 | 53 | 1031.4 |
| 20260505073129 | 64 | 42 | 3.0 | 6.0 | 0.00 | 0.00 | 0.00 | 54 | 1031.2 |
| 20260505072624 | 64 | 42 | 3.0 | 6.0 | 0.00 | 0.00 | 0.00 | 54 | 1031.2 |
| 20260505072121 | 64 | 48 | 6.0 | 7.0 | 0.00 | 0.00 | 0.00 | 54 | 1031.3 |
| 20260505071617 | 64 | 0 | 2.0 | 4.0 | 0.00 | 0.00 | 0.00 | 55 | 1031.5 |
| 20260505071115 | 64 | 0 | 0.0 | 3.0 | 0.00 | 0.00 | 0.00 | 56 | 1031.4 |
| 20260505070612 | 64 | 355 | 2.0 | 4.0 | 0.00 | 0.00 | 0.00 | 55 | 1031.4 |
| 20260505070108 | 64 | 24 | 2.0 | 6.0 | 0.00 | 0.00 | 0.00 | 55 | 1031.4 |
| 20260505065604 | 64 | 340 | 1.0 | 3.0 | 0.00 | 0.00 | 0.00 | 56 | 1031.4 |
| 20260505065101 | 64 | 110 | 2.0 | 5.0 | 0.00 | 0.00 | 0.00 | 54 | 1031.2 |
| 20260505064558 | 65 | 345 | 2.0 | 6.0 | 0.00 | 0.00 | 0.00 | 53 | 1031.3 |
| 20260505064056 | 64 | 123 | 5.0 | 5.0 | 0.00 | 0.00 | 0.00 | 56 | 1031.3 |
| 20260505063553 | 64 | 180 | 0.0 | 4.0 | 0.00 | 0.00 | 0.00 | 55 | 1031.3 |
| 20260505063049 | 63 | 152 | 0.0 | 3.0 | 0.00 | 0.00 | 0.00 | 59 | 1031.4 |
| 20260505062546 | 65 | 168 | 2.0 | 3.0 | 0.00 | 0.00 | 0.00 | 57 | 1031.4 |
| 20260505062043 | 67 | 16 | 3.0 | 5.0 | 0.00 | 0.00 | 0.00 | 50 | 1031.4 |
| 20260505061540 | 66 | 3 | 5.0 | 7.0 | 0.00 | 0.00 | 0.00 | 51 | 1031.1 |
| 20260505061038 | 67 | 327 | 3.0 | 9.0 | 0.00 | 0.00 | 0.00 | 51 | 1030.9 |
| 20260505060535 | 66 | 353 | 5.0 | 6.0 | 0.00 | 0.00 | 0.00 | 51 | 1031.0 |
| 20260505060032 | 67 | 343 | 4.0 | 6.0 | 0.00 | 0.00 | 0.00 | 51 | 1031.0 |
| 20260505055527 | 67 | 334 | 3.0 | 6.0 | 0.00 | 0.00 | 0.00 | 51 | 1031.0 |
| 20260505055024 | 67 | 354 | 6.0 | 8.0 | 0.00 | 0.00 | 0.00 | 51 | 1030.9 |
| 20260505054521 | 67 | 338 | 4.0 | 9.0 | 0.00 | 0.00 | 0.00 | 51 | 1031.0 |
| 20260505054020 | 68 | 338 | 4.0 | 9.0 | 0.00 | 0.00 | 0.00 | 51 | 1031.1 |
| 20260505053517 | 67 | 349 | 9.0 | 10.0 | 0.00 | 0.00 | 0.00 | 50 | 1031.0 |
| 20260505053013 | 68 | 344 | 5.0 | 12.0 | 0.00 | 0.00 | 0.00 | 50 | 1031.0 |
| 20260505052510 | 68 | 6 | 6.0 | 9.0 | 0.00 | 0.00 | 0.00 | 50 | 1031.1 |
| 20260505052008 | 68 | 348 | 6.0 | 8.0 | 0.00 | 0.00 | 0.00 | 50 | 1030.9 |
| 20260505051504 | 68 | 349 | 4.0 | 8.0 | 0.00 | 0.00 | 0.00 | 50 | 1030.8 |
| 20260505051003 | 68 | 344 | 4.0 | 8.0 | 0.00 | 0.00 | 0.00 | 50 | 1030.9 |
| 20260505050500 | 68 | 347 | 5.0 | 11.0 | 0.00 | 0.00 | 0.00 | 49 | 1030.9 |
| 20260505041428 | 67 | 3 | 7.0 | 7.0 | 0.00 | 0.00 | 0.00 | 52 | 1031.1 |
| 20260505040925 | 68 | 6 | 4.0 | 7.0 | 0.00 | 0.00 | 0.00 | 51 | 1030.8 |
| 20260505040423 | 68 | 348 | 3.0 | 5.0 | 0.00 | 0.00 | 0.00 | 51 | 1030.9 |
| 20260505035919 | 68 | 11 | 5.0 | 7.0 | 0.00 | 0.00 | 0.00 | 51 | 1031.0 |
| 20260505035415 | 68 | 0 | 5.0 | 7.0 | 0.00 | 0.00 | 0.00 | 50 | 1030.9 |
| 20260505034913 | 68 | 355 | 7.0 | 7.0 | 0.00 | 0.00 | 0.00 | 50 | 1030.9 |
| 20260505034409 | 68 | 350 | 5.0 | 7.0 | 0.00 | 0.00 | 0.00 | 51 | 1030.9 |
| 20260505033906 | 68 | 345 | 4.0 | 7.0 | 0.00 | 0.00 | 0.00 | 51 | 1030.6 |
| 20260505033403 | 67 | 3 | 6.0 | 6.0 | 0.00 | 0.00 | 0.00 | 51 | 1030.8 |
| 20260505032901 | 67 | 347 | 3.0 | 5.0 | 0.00 | 0.00 | 0.00 | 52 | 1030.8 |
| 20260505032357 | 68 | 7 | 5.0 | 6.0 | 0.00 | 0.00 | 0.00 | 51 | 1031.2 |
| 20260505031854 | 68 | 5 | 5.0 | 5.0 | 0.00 | 0.00 | 0.00 | 51 | 1031.2 |
| 20260505031351 | 68 | 351 | 4.0 | 6.0 | 0.00 | 0.00 | 0.00 | 51 | 1031.0 |
| 20260505030848 | 68 | 11 | 3.0 | 5.0 | 0.00 | 0.00 | 0.00 | 51 | 1031.0 |
| 20260505030344 | 68 | 335 | 3.0 | 5.0 | 0.00 | 0.00 | 0.00 | 51 | 1031.0 |
| 20260505025840 | 68 | 7 | 3.0 | 5.0 | 0.00 | 0.00 | 0.00 | 51 | 1031.1 |
| 20260505025337 | 67 | 357 | 2.0 | 5.0 | 0.00 | 0.00 | 0.00 | 52 | 1031.2 |
| 20260505024836 | 67 | 354 | 3.0 | 4.0 | 0.00 | 0.00 | 0.00 | 52 | 1031.2 |
| 20260505024333 | 67 | 340 | 3.0 | 5.0 | 0.00 | 0.00 | 0.00 | 52 | 1031.2 |
| 20260505023830 | 67 | 349 | 3.0 | 5.0 | 0.00 | 0.00 | 0.00 | 52 | 1031.2 |
| 20260505023327 | 67 | 0 | 4.0 | 5.0 | 0.00 | 0.00 | 0.00 | 52 | 1031.2 |
| 20260505022824 | 68 | 4 | 4.0 | 6.0 | 0.00 | 0.00 | 0.00 | 52 | 1031.3 |
| 20260505022321 | 67 | 9 | 4.0 | 7.0 | 0.00 | 0.00 | 0.00 | 52 | 1031.4 |
| 20260505021819 | 67 | 14 | 4.0 | 5.0 | 0.00 | 0.00 | 0.00 | 53 | 1031.4 |
| 20260505021315 | 67 | 12 | 3.0 | 4.0 | 0.00 | 0.00 | 0.00 | 54 | 1031.3 |
| 20260505020811 | 67 | 18 | 3.0 | 6.0 | 0.00 | 0.00 | 0.00 | 55 | 1031.3 |
| 20260505020307 | 67 | 23 | 2.0 | 4.0 | 0.00 | 0.00 | 0.00 | 54 | 1031.4 |
| 20260505015804 | 67 | 42 | 3.0 | 7.0 | 0.00 | 0.00 | 0.00 | 54 | 1031.2 |
| 20260505015301 | 67 | 32 | 4.0 | 6.0 | 0.00 | 0.00 | 0.00 | 54 | 1031.2 |
| 20260505014758 | 67 | 43 | 4.0 | 7.0 | 0.00 | 0.00 | 0.00 | 54 | 1031.3 |
| 20260505014255 | 67 | 18 | 2.0 | 7.0 | 0.00 | 0.00 | 0.00 | 54 | 1031.0 |
| 20260505013751 | 67 | 10 | 3.0 | 5.0 | 0.00 | 0.00 | 0.00 | 54 | 1031.1 |
| 20260505013249 | 68 | 56 | 3.0 | 5.0 | 0.00 | 0.00 | 0.00 | 54 | 1031.0 |
| 20260505012747 | 68 | 75 | 3.0 | 4.0 | 0.00 | 0.00 | 0.00 | 54 | 1031.1 |
| 20260505012244 | 68 | 42 | 3.0 | 4.0 | 0.00 | 0.00 | 0.00 | 54 | 1031.1 |
| 20260505011739 | 68 | 24 | 2.0 | 4.0 | 0.00 | 0.00 | 0.00 | 54 | 1031.1 |
| 20260505011237 | 68 | 21 | 2.0 | 4.0 | 0.00 | 0.00 | 0.00 | 54 | 1031.1 |
| 20260505010732 | 68 | 12 | 2.0 | 3.0 | 0.00 | 0.00 | 0.00 | 54 | 1030.9 |
| 20260505010229 | 68 | 50 | 3.0 | 4.0 | 0.00 | 0.00 | 0.00 | 54 | 1030.9 |
| 20260505005725 | 69 | 10 | 3.0 | 4.0 | 0.00 | 0.00 | 0.00 | 53 | 1030.8 |
| 20260505005223 | 69 | 40 | 4.0 | 5.0 | 0.00 | 0.00 | 0.00 | 53 | 1030.7 |
| 20260505004720 | 69 | 45 | 3.0 | 4.0 | 0.00 | 0.00 | 0.00 | 51 | 1031.0 |
| 20260505004216 | 70 | 42 | 3.0 | 5.0 | 0.00 | 0.00 | 0.00 | 51 | 1030.7 |
| 20260505003713 | 70 | 63 | 0.0 | 5.0 | 0.00 | 0.00 | 0.00 | 51 | 1030.9 |
| 20260505003211 | 70 | 346 | 3.0 | 4.0 | 0.00 | 0.00 | 0.00 | 51 | 1030.7 |
| 20260505002707 | 70 | 21 | 2.0 | 2.0 | 0.00 | 0.00 | 0.00 | 51 | 1030.6 |
| 20260505002205 | 70 | 53 | 2.0 | 3.0 | 0.00 | 0.00 | 0.00 | 50 | 1030.6 |
| 20260505001702 | 71 | 54 | 1.0 | 4.0 | 0.00 | 0.00 | 0.00 | 48 | 1030.5 |
| 20260505001159 | 71 | 22 | 4.0 | 5.0 | 0.00 | 0.00 | 0.00 | 46 | 1030.6 |
| 20260505000656 | 72 | 55 | 3.0 | 3.0 | 0.00 | 0.00 | 0.00 | 47 | 1030.6 |
| 20260505000154 | 72 | 12 | 3.0 | 7.0 | 0.00 | 0.00 | 0.00 | 46 | 1030.5 |
| 20260504235650 | 72 | 123 | 0.0 | 3.0 | 0.00 | 0.00 | 0.00 | 47 | 1030.5 |
| 20260504235146 | 72 | 96 | 0.0 | 4.0 | 0.00 | 0.00 | 0.00 | 47 | 1030.6 |
| 20260504234644 | 73 | 20 | 3.0 | 6.0 | 0.00 | 0.00 | 0.00 | 47 | 1030.3 |
| 20260504234141 | 73 | 32 | 6.0 | 6.0 | 0.00 | 0.00 | 0.00 | 47 | 1030.4 |
| 20260504233637 | 73 | 185 | 2.0 | 7.0 | 0.00 | 0.00 | 0.00 | 47 | 1030.3 |
| 20260504233133 | 73 | 159 | 0.0 | 8.0 | 0.00 | 0.00 | 0.00 | 48 | 1030.2 |
| 20260504232631 | 73 | 23 | 3.0 | 6.0 | 0.00 | 0.00 | 0.00 | 47 | 1030.3 |
| 20260504232128 | 74 | 110 | 3.0 | 4.0 | 0.00 | 0.00 | 0.00 | 47 | 1030.3 |
| 20260504231624 | 74 | 25 | 3.0 | 4.0 | 0.00 | 0.00 | 0.00 | 47 | 1030.2 |
| 20260504231121 | 74 | 51 | 3.0 | 5.0 | 0.00 | 0.00 | 0.00 | 47 | 1030.4 |
| 20260504230617 | 74 | 29 | 2.0 | 5.0 | 0.00 | 0.00 | 0.00 | 47 | 1030.3 |
| 20260504230116 | 74 | 0 | 3.0 | 10.0 | 0.00 | 0.00 | 0.00 | 46 | 1030.3 |
| 20260504225613 | 75 | 65 | 4.0 | 6.0 | 0.00 | 0.00 | 0.00 | 46 | 1030.2 |
| 20260504225110 | 75 | 159 | 3.0 | 6.0 | 0.00 | 0.00 | 0.00 | 45 | 1030.3 |
| 20260504224606 | 76 | 111 | 1.0 | 7.0 | 0.00 | 0.00 | 0.00 | 45 | 1030.4 |
| 20260504224103 | 75 | 25 | 3.0 | 5.0 | 0.00 | 0.00 | 0.00 | 45 | 1030.4 |
| 20260504223600 | 75 | 127 | 0.0 | 7.0 | 0.00 | 0.00 | 0.00 | 46 | 1030.3 |
| 20260504223056 | 76 | 105 | 0.0 | 5.0 | 0.00 | 0.00 | 0.00 | 45 | 1030.4 |
| 20260504222553 | 76 | 57 | 3.0 | 11.0 | 0.00 | 0.00 | 0.00 | 44 | 1030.4 |
| 20260504222050 | 77 | 83 | 0.0 | 6.0 | 0.00 | 0.00 | 0.00 | 43 | 1030.3 |
| 20260504221548 | 77 | 138 | 3.0 | 3.0 | 0.00 | 0.00 | 0.00 | 44 | 1030.6 |
| 20260504221044 | 77 | 90 | 2.0 | 5.0 | 0.00 | 0.00 | 0.00 | 43 | 1030.5 |
| 20260504220541 | 77 | 29 | 0.0 | 5.0 | 0.00 | 0.00 | 0.00 | 43 | 1030.3 |
| 20260504220038 | 77 | 194 | 1.0 | 6.0 | 0.00 | 0.00 | 0.00 | 44 | 1030.4 |
| 20260504215534 | 77 | 180 | 2.0 | 5.0 | 0.00 | 0.00 | 0.00 | 44 | 1030.1 |
| 20260504215032 | 77 | 164 | 0.0 | 7.0 | 0.00 | 0.00 | 0.00 | 43 | 1030.2 |
| 20260504214527 | 78 | 131 | 3.0 | 5.0 | 0.00 | 0.00 | 0.00 | 42 | 1030.2 |
| 20260504214024 | 79 | 34 | 4.0 | 4.0 | 0.00 | 0.00 | 0.00 | 42 | 1030.1 |
| 20260504213521 | 77 | 273 | 3.0 | 5.0 | 0.00 | 0.00 | 0.00 | 44 | 1030.2 |
| 20260504213018 | 77 | 201 | 2.0 | 3.0 | 0.00 | 0.00 | 0.00 | 45 | 1030.2 |
| 20260504212513 | 77 | 162 | 0.0 | 5.0 | 0.00 | 0.00 | 0.00 | 45 | 1030.5 |
| 20260504212011 | 77 | 157 | 0.0 | 4.0 | 0.00 | 0.00 | 0.00 | 46 | 1030.4 |
| 20260504211508 | 77 | 151 | 3.0 | 7.0 | 0.00 | 0.00 | 0.00 | 42 | 1030.2 |
| 20260504211005 | 79 | 270 | 2.0 | 4.0 | 0.00 | 0.00 | 0.00 | 40 | 1030.6 |
| 20260504210502 | 78 | 357 | 0.0 | 10.0 | 0.00 | 0.00 | 0.00 | 41 | 1030.4 |
| 20260504205958 | 78 | 195 | 1.0 | 3.0 | 0.00 | 0.00 | 0.00 | 43 | 1030.4 |
| 20260504205456 | 79 | 308 | 2.0 | 5.0 | 0.00 | 0.00 | 0.00 | 41 | 1030.6 |
| 20260504204954 | 78 | 180 | 3.0 | 5.0 | 0.00 | 0.00 | 0.00 | 43 | 1030.7 |
| 20260504204452 | 79 | 41 | 2.0 | 7.0 | 0.00 | 0.00 | 0.00 | 42 | 1030.6 |
| 20260504203951 | 78 | 190 | 3.0 | 3.0 | 0.00 | 0.00 | 0.00 | 41 | 1030.8 |
| 20260504203449 | 79 | 195 | 2.0 | 5.0 | 0.00 | 0.00 | 0.00 | 43 | 1030.8 |
| 20260504202944 | 79 | 170 | 3.0 | 3.0 | 0.00 | 0.00 | 0.00 | 43 | 1030.7 |
| 20260504202441 | 78 | 285 | 1.0 | 4.0 | 0.00 | 0.00 | 0.00 | 44 | 1030.4 |
| 20260504201938 | 78 | 339 | 3.0 | 7.0 | 0.00 | 0.00 | 0.00 | 41 | 1030.9 |
| 20260504201435 | 77 | 194 | 0.0 | 6.0 | 0.00 | 0.00 | 0.00 | 44 | 1030.9 |
| 20260504200933 | 78 | 183 | 2.0 | 5.0 | 0.00 | 0.00 | 0.00 | 43 | 1031.0 |
| 20260504200429 | 79 | 159 | 2.0 | 3.0 | 0.00 | 0.00 | 0.00 | 42 | 1031.2 |
| 20260504195926 | 79 | 40 | 2.0 | 6.0 | 0.00 | 0.00 | 0.00 | 40 | 1031.0 |
| 20260504195422 | 78 | 294 | 2.0 | 5.0 | 0.00 | 0.00 | 0.00 | 43 | 1031.0 |
| 20260504194919 | 77 | 203 | 0.0 | 5.0 | 0.00 | 0.00 | 0.00 | 46 | 1031.2 |
| 20260504194414 | 76 | 238 | 4.0 | 5.0 | 0.00 | 0.00 | 0.00 | 45 | 1031.3 |
| 20260504193911 | 77 | 109 | 0.0 | 6.0 | 0.00 | 0.00 | 0.00 | 47 | 1031.3 |
| 20260504193408 | 77 | 191 | 2.0 | 5.0 | 0.00 | 0.00 | 0.00 | 45 | 1031.4 |
| 20260504192907 | 77 | 163 | 5.0 | 6.0 | 0.00 | 0.00 | 0.00 | 47 | 1031.7 |
| 20260504192404 | 77 | 151 | 0.0 | 3.0 | 0.00 | 0.00 | 0.00 | 47 | 1031.5 |
| 20260504191902 | 77 | 110 | 3.0 | 4.0 | 0.00 | 0.00 | 0.00 | 46 | 1031.8 |
| 20260504191400 | 76 | 15 | 4.0 | 7.0 | 0.00 | 0.00 | 0.00 | 44 | 1031.8 |
| 20260504190855 | 75 | 169 | 2.0 | 5.0 | 0.00 | 0.00 | 0.00 | 51 | 1031.9 |
| 20260504190351 | 75 | 253 | 2.0 | 7.0 | 0.00 | 0.00 | 0.00 | 47 | 1031.8 |
| 20260504185848 | 75 | 27 | 6.0 | 6.0 | 0.00 | 0.00 | 0.00 | 49 | 1032.4 |
| 20260504185345 | 75 | 90 | 1.0 | 5.0 | 0.00 | 0.00 | 0.00 | 48 | 1032.2 |
| 20260504184841 | 75 | 214 | 0.0 | 4.0 | 0.00 | 0.00 | 0.00 | 48 | 1032.2 |
| 20260504184337 | 75 | 33 | 4.0 | 6.0 | 0.00 | 0.00 | 0.00 | 47 | 1032.4 |
| 20260504183833 | 75 | 180 | 1.0 | 3.0 | 0.00 | 0.00 | 0.00 | 51 | 1032.3 |
| 20260504183331 | 74 | 156 | 4.0 | 7.0 | 0.00 | 0.00 | 0.00 | 51 | 1032.5 |
| 20260504182828 | 74 | 157 | 4.0 | 5.0 | 0.00 | 0.00 | 0.00 | 51 | 1032.6 |
| 20260504182325 | 74 | 124 | 3.0 | 3.0 | 0.00 | 0.00 | 0.00 | 50 | 1032.5 |
| 20260504181822 | 74 | 203 | 2.0 | 4.0 | 0.00 | 0.00 | 0.00 | 50 | 1032.5 |
| 20260504181320 | 74 | 156 | 2.0 | 3.0 | 0.00 | 0.00 | 0.00 | 49 | 1032.5 |
| 20260504180819 | 73 | 153 | 4.0 | 5.0 | 0.00 | 0.00 | 0.00 | 50 | 1032.6 |
| 20260504180316 | 74 | 327 | 2.0 | 8.0 | 0.00 | 0.00 | 0.00 | 47 | 1032.8 |
| 20260504175814 | 73 | 2 | 3.0 | 6.0 | 0.00 | 0.00 | 0.00 | 48 | 1033.0 |
| 20260504175311 | 73 | 152 | 3.0 | 4.0 | 0.00 | 0.00 | 0.00 | 52 | 1032.8 |
| 20260504174809 | 72 | 164 | 4.0 | 5.0 | 0.00 | 0.00 | 0.00 | 51 | 1032.9 |
| 20260504174306 | 72 | 165 | 0.0 | 3.0 | 0.00 | 0.00 | 0.00 | 49 | 1033.0 |
| 20260504173803 | 72 | 213 | 3.0 | 5.0 | 0.00 | 0.00 | 0.00 | 50 | 1032.9 |
| 20260504173259 | 73 | 177 | 3.0 | 5.0 | 0.00 | 0.00 | 0.00 | 46 | 1033.1 |
| 20260504172756 | 73 | 341 | 2.0 | 4.0 | 0.00 | 0.00 | 0.00 | 48 | 1033.0 |
| 20260504172253 | 72 | 26 | 3.0 | 4.0 | 0.00 | 0.00 | 0.00 | 49 | 1033.1 |
| 20260504171749 | 73 | 29 | 2.0 | 6.0 | 0.00 | 0.00 | 0.00 | 50 | 1033.3 |
| 20260504171246 | 72 | 187 | 0.0 | 3.0 | 0.00 | 0.00 | 0.00 | 50 | 1033.2 |
| 20260504170743 | 72 | 248 | 2.0 | 4.0 | 0.00 | 0.00 | 0.00 | 48 | 1033.3 |
| 20260504170241 | 71 | 33 | 0.0 | 6.0 | 0.00 | 0.00 | 0.00 | 47 | 1033.3 |
| 20260504160159 | 69 | 0 | 2.0 | 4.0 | 0.00 | 0.00 | 0.00 | 49 | 1034.3 |
| 20260504151127 | 66 | 0 | 2.0 | 6.0 | 0.00 | 0.00 | 0.00 | 52 | 1035.1 |
| 20260504150624 | 65 | 29 | 5.0 | 9.0 | 0.00 | 0.00 | 0.00 | 53 | 1035.0 |
| 20260504150121 | 65 | 14 | 0.0 | 6.0 | 0.00 | 0.00 | 0.00 | 54 | 1035.1 |
| 20260504141049 | 57 | 148 | 0.0 | 0.0 | 0.00 | 0.00 | 0.00 | 69 | 1035.6 |
| 20260504140546 | 57 | 148 | 0.0 | 0.0 | 0.00 | 0.00 | 0.00 | 70 | 1035.6 |
| 20260504130505 | 52 | 165 | 0.0 | 0.0 | 0.00 | 0.00 | 0.00 | 73 | 1035.8 |
| 20260504110352 | 55 | 12 | 3.0 | 3.0 | 0.00 | 0.00 | 0.00 | 59 | 1034.4 |
| 20260504100309 | 57 | 345 | 2.0 | 3.0 | 0.00 | 0.00 | 0.00 | 54 | 1034.4 |
| 20260504081703 | 56 | 0 | 2.0 | 3.0 | 0.00 | 0.00 | 0.00 | 55 | 1034.9 |
| 20260504081159 | 56 | 3 | 3.0 | 3.0 | 0.00 | 0.00 | 0.00 | 55 | 1034.9 |
| 20260504080655 | 56 | 23 | 1.0 | 1.0 | 0.00 | 0.00 | 0.00 | 55 | 1035.1 |
| 20260504080152 | 56 | 18 | 0.0 | 2.0 | 0.00 | 0.00 | 0.00 | 55 | 1035.0 |